SCP
0 0 0 0 0 0 0 0 0 0 0 0 0 0 0 0 0 0 0 0 0 0 0 0 0 0 0 0 0 0 0 0 0 0 0 0 0 0 0 0 0 0 0
0 0 0 0 0 0 0 0 0 0 0 0 0 0 0 0 0 0 0 0 0 0 0 0 0 0 0 0 0 0 0 0 0 0 0 0 0 0 0 0 0 0 0
0 0 0 0 0 0 0 0 0 0 0 0 0 0 0 0 0 0 0 0 0 0 0 0 0 0 0 0 0 0 0 0 0 0 0 0 0 0 0 0 0 0 0
0 0 0 0 0 0 0 0 0 0 0 0 0 0 0 0 0 0 0 0 0 0 0 0 0 0 0 0 0 0 0 0 0 0 0 0 0 0 0 0 0 0 0
0 0 0 0 0 0 0 0 0 0 0 0 0 0 0 0 0 0 0 0 0 0 0 0 0 0 0 0 0 0 0 0 0 0 0 0 0 0 0 0 0 0 0
0 0 0 0 0 0 0 0 0 0 0 0 0 0 0 0 0 0 0 0 0 0 0 0 0 0 0 0 0 0 0 0 0 0 0 0 0 0 0 0 0 0 0
0 0 0 0 0 0 0 0 0 0 0 0 0 0 0 0 0 0 0 0 0 0 0 0 0 0 0 0 0 0 0 0 0 0 0 0 0 0 0 0 0 0 0
0 0 0 0 0 0 0 0 0 0 0 0 0 0 0 0 0 0 0 0 0 0 0 0 0 0 0 0 0 0 0 0 0 0 0 0 0 0 0 0 0 0 0
0 0 0 0 0 0 0 0 0 0 0 0 0 0 0 0 0 0 0 0 0 0 0 0 0 0 0 0 0 0 0 0 0 0 0 0 0 0 0 0 0 0 0
0 0 0 0 0 0 0 0 0 0 0 0 0 0 0 0 0 0 0 0 0 0 0 0 0 0 0 0 0 0 0 0 0 0 0 0 0 0 0 0 0 0 0
0 0 0 0 0 0 0 0 0 0 0 0 0 0 0 0 0 0 0 0 0 0 0 0 0 0 0 0 0 0 0 0 0 0 0 0 0 0 0 0 0 0 0
0 0 0 0 0 0 0 0 0 0 0 0 0 0 0 0 0 0 0 0 0 0 0 0 0 0 0 0 0 0 0 0 0 0 0 0 0 0 0 0 0 0 0
0 0 0 0 0 0 0 0 0 0 0 0 0 0 0 0 0 0 0 0 0 0 0 0 0 0 0 0 0 0 0 0 0 0 0 0 0 0 0 0 0 0 0
0 0 0 0 0 0 0 0 0 0 0 0 0 0 0 0 0 0 0 0 0 0 0 0 0 0 0 0 0 0 0 0 0 0 0 0 0 0 0 0 0 0 0
0 0 0 0 0 0 0 0 0 0 0 0 0 0 0 0 0 0 0 0 0 0 0 0 0 0 0 0 0 0 0 0 0 0 0 0 0 0 0 0 0 0 0
0 0 0 0 0 0 0 0 0 0 0 0 0 0 0 0 0 0 0 0 0 0 0 0 0 0 0 0 0 0 0 0 0 0 0 0 0 0 0 0 0 0 0
0 0 0 0 0 0 0 0 0 0 0 0 0 0 0 0 0 0 0 0 0 0 0 0 0 0 0 0 0 0 0 0 0 0 0 0 0 0 0 0 0 0 0
0 0 0 0 0 0 0 0 0 0 0 0 0 0 0 0 0 0 0 0 0 0 0 0 0 0 0 0 0 0 0 0 0 0 0 0 0 0 0 0 0 0 0
0 0 0 0 0 0 0 0 0 0 0 0 0 0 0 0 0 0 0 0 0 0 0 0 0 0 0 0 0 0 0 0 0 0 0 0 0 0 0 0 0 0 0
0 0 0 0 0 0 0 0 0 0 0 0 0 0 0 0 0 0 0 0 0 0 0 0 0 0 0 0 0 0 0 0 0 0 0 0 0 0 0 0 0 0 0
0 0 0 0 0 0 0 0 0 0 0 0 0 0 0 0 0 0 0 0 0 0 0 0 0 0 0 0 0 0 0 0 0 0 0 0 0 0 0 0 0 0 0
0 0 0 0 0 0 0 0 0 0 0 0 0 0 0 0 0 0 0 0 0 0 0 0 0 0 0 0 0 0 0 0 0 0 0 0 0 0 0 0 0 0 0
0 0 0 0 0 0 0 0 0 0 0 0 0 0 0 0 0 0 0 0 0 0 0 0 0 0 0 0 0 0 0 0 0 0 0 0 0 0 0 0 0 0 0
0 0 0 0 0 0 0 0 0 0 0 0 0 0 0 0 0 0 0 0 0 0 0 0 0 0 0 0 0 0 0 0 0 0 0 0 0 0 0 0 0 0 0
0 0 0 0 0 0 0 0 0 0 0 0 0 0 0 0 0 0 0 0 0 0 0 0 0 0 0 0 0 0 0 0 0 0 0 0 0 0 0 0 0 0 0
0 0 0 0 0 0 0 0 0 0 0 0 0 0 0 0 0 0 0 0 0 0 0 0 0 0 0 0 0 0 0 0 0 0 0 0 0 0 0 0 0 0 0
Wind_Speed
2 3 5 5 5 5 5 5 5 5 4 4 5 5 5 6 6 6 7 7 7 7 8 9 9 10 10 11 11 11 11 11 12 11 11 11 11 11 11 9 7 11 13
1 4 5 4 5 5 5 5 5 4 4 4 5 5 5 5 6 6 7 7 7 8 8 8 9 10 10 11 11 11 11 12 12 10 9 9 9 10 10 8 8 10 12
2 3 5 3 4 5 5 5 5 4 4 4 4 5 5 5 6 6 7 7 7 7 8 8 9 9 10 11 11 11 11 12 11 7 5 8 10 10 10 10 11 12 12
2 3 4 3 4 4 4 4 5 4 4 4 4 4 5 5 6 6 6 6 7 7 7 8 8 9 9 10 11 11 11 11 8 4 5 7 8 10 10 10 11 11 12
2 3 4 3 4 4 4 4 4 4 4 4 4 4 5 5 5 5 6 6 7 7 7 7 8 8 9 10 10 10 10 10 6 4 6 6 7 10 10 10 11 11 12
2 2 4 2 3 4 4 4 4 4 4 4 4 4 5 5 5 5 6 6 6 6 7 7 8 9 9 9 10 10 9 8 6 6 6 6 7 9 10 11 11 11 11
2 2 3 3 3 2 3 4 4 4 4 5 5 5 5 5 5 5 5 6 6 6 7 8 8 9 9 9 9 9 8 5 4 5 5 5 7 10 10 10 11 11 11
2 2 2 3 3 1 1 2 3 3 4 4 4 4 5 5 4 5 5 6 6 7 7 8 9 9 9 9 9 8 6 4 5 5 5 6 8 9 9 10 10 10 11
2 2 1 2 2 2 1 0 1 1 3 4 4 3 3 4 4 5 5 6 6 6 7 8 9 9 9 9 8 8 6 2 4 4 5 5 7 8 9 9 9 10 10
1 1 1 1 1 1 2 1 0 0 1 2 3 3 2 3 4 5 5 5 6 6 7 8 9 9 9 8 8 7 5 4 5 5 4 6 8 9 9 9 9 10 10
0 1 1 1 1 1 2 1 2 1 1 2 3 4 3 3 4 4 4 4 5 6 7 8 9 9 8 7 7 6 4 4 5 3 3 6 8 9 9 9 9 9 10
2 1 1 2 2 1 1 1 2 2 3 3 3 4 3 2 2 2 5 4 5 6 6 7 8 8 6 5 6 5 3 4 4 3 4 7 8 9 9 9 9 10 10
2 2 2 2 2 2 1 1 1 1 2 3 3 3 3 2 2 3 3 4 4 5 5 7 7 5 5 4 4 4 3 3 2 3 4 6 8 9 9 9 9 9 10
3 3 2 2 2 2 2 2 2 1 2 2 3 4 3 2 2 2 2 3 3 3 4 4 3 5 5 5 5 5 4 3 2 3 4 5 6 8 9 9 9 9 10
4 3 3 3 3 3 2 2 2 2 2 2 3 4 3 3 3 3 3 3 3 3 3 4 4 5 5 5 4 4 4 4 3 3 3 5 5 6 8 8 9 10 10
4 4 3 3 3 4 3 3 2 2 2 2 3 3 4 3 3 3 3 3 3 3 3 4 5 5 4 4 4 4 3 3 3 3 3 4 4 4 6 8 9 9 10
4 4 4 4 4 4 4 3 2 2 2 2 2 3 4 3 4 3 3 3 3 3 4 4 5 4 4 4 4 4 3 3 3 3 3 2 3 4 3 6 8 9 10
4 4 3 3 3 4 3 3 2 2 3 2 2 3 4 4 4 3 3 3 3 3 3 4 4 4 4 4 4 3 2 2 3 3 2 2 2 2 4 4 6 8 9
3 3 3 3 3 3 3 2 2 2 2 2 2 2 3 4 4 3 3 3 3 3 3 4 4 4 4 4 3 3 2 2 2 2 3 2 2 2 2 4 4 5 7
3 3 3 3 3 3 2 2 2 2 2 2 2 2 3 3 4 3 3 3 3 3 3 4 5 4 4 4 4 3 2 1 1 1 2 2 2 2 2 3 4 4 5
2 2 3 3 2 2 2 2 2 2 2 2 1 2 3 4 4 4 3 4 4 3 4 5 5 6 4 4 3 2 1 1 1 1 2 2 3 3 2 2 3 3 3
1 2 2 3 3 3 2 2 2 2 1 2 1 2 3 4 4 4 4 4 4 4 4 5 5 4 3 4 3 3 2 2 2 2 2 2 3 3 3 3 3 3 3
1 1 1 2 2 3 2 2 2 1 1 1 2 2 3 3 4 4 5 5 5 5 5 5 6 6 5 3 3 3 3 4 2 3 3 3 3 3 3 3 3 3 4
1 1 2 2 3 3 3 3 4 3 2 2 2 2 3 4 4 4 4 4 5 4 5 5 5 4 6 5 3 2 2 1 3 3 3 3 3 3 3 3 3 4 4
0 0 1 2 3 3 4 4 4 3 3 2 2 3 3 3 3 3 4 4 4 4 5 5 5 5 5 5 4 3 2 1 2 2 3 4 4 3 3 3 3 3 4
1 0 1 1 2 3 4 4 4 4 4 3 3 3 3 3 3 4 4 5 5 5 5 6 5 6 5 5 5 4 3 3 3 3 3 3 4 3 4 3 3 3 3
Wind_Direction
144 153 139 163 155 150 141 133 126 120 118 122 126 128 131 134 132 132 134 133 131 127 125 120 119 123 123 119 114 111 108 105 102 99 97 96 98 102 103 103 111 100 97
152 156 136 161 159 157 149 142 136 128 128 131 132 129 131 136 135 134 137 139 135 131 127 122 120 119 120 119 115 113 110 106 103 100 104 104 97 100 101 90 75 96 101
139 151 148 154 161 154 154 154 146 142 141 136 136 130 130 130 128 129 132 134 133 129 126 122 119 117 117 118 116 115 112 109 107 110 137 120 109 103 106 101 96 102 101
135 145 146 141 162 154 158 160 157 158 152 143 140 134 127 126 125 129 130 134 136 129 124 124 122 119 119 119 118 116 113 112 110 137 132 111 112 108 109 109 106 105 103
134 140 127 132 157 159 161 165 165 162 161 155 145 143 135 130 130 131 134 131 132 130 129 129 124 124 121 122 122 120 117 115 121 146 112 111 109 111 113 110 108 105 103
131 137 126 126 154 163 168 167 169 168 162 162 157 153 146 140 138 132 133 133 130 132 133 132 130 128 124 123 125 123 121 127 153 125 115 113 113 113 114 111 107 107 105
116 106 122 108 118 149 172 175 177 176 170 167 163 158 150 144 141 141 136 140 138 139 138 135 135 133 127 125 122 123 122 131 147 125 118 112 107 113 116 115 113 111 110
114 109 118 122 104 102 129 141 174 183 181 173 167 163 160 152 148 149 145 143 146 144 141 138 136 133 130 126 124 120 120 155 144 133 128 119 108 118 119 118 117 116 114
124 124 122 149 153 138 75 112 158 178 174 177 168 162 151 150 150 151 149 147 144 142 141 139 137 136 133 128 125 121 116 153 158 138 136 124 119 128 124 122 122 120 117
131 152 167 172 181 192 194 160 73 360 173 165 155 134 122 140 144 147 152 144 141 138 137 139 138 136 130 127 126 123 126 169 153 142 141 124 126 132 128 126 128 126 121
212 215 209 217 203 204 219 179 184 171 173 168 152 125 155 171 160 158 143 131 136 138 134 138 140 136 131 129 126 128 159 159 145 139 132 121 136 134 128 125 125 127 121
234 231 227 226 224 213 205 193 205 203 191 186 178 165 176 178 161 151 117 123 127 130 134 138 141 144 155 148 137 158 158 148 139 132 118 123 140 137 132 128 124 125 122
237 231 227 229 220 208 184 199 206 212 197 181 176 175 175 166 159 160 149 143 148 155 154 149 158 161 162 153 154 153 144 141 132 125 118 125 139 139 139 136 131 128 126
243 240 237 222 218 206 193 191 194 201 197 180 175 181 177 169 177 169 170 163 163 163 158 161 155 155 154 153 152 146 140 138 128 121 108 117 134 144 146 144 140 136 133
240 245 240 227 218 210 196 195 197 199 199 191 181 180 182 173 173 176 174 167 162 158 161 162 159 151 152 149 147 147 142 140 137 128 114 102 122 140 149 148 147 144 140
237 236 233 223 215 210 201 193 200 200 191 195 186 175 175 176 171 173 172 167 160 160 162 166 159 156 153 150 146 144 142 142 139 135 130 118 105 127 151 157 154 150 145
243 236 227 217 203 204 205 195 186 188 179 185 183 176 177 176 175 174 172 169 158 156 155 154 152 150 148 148 146 142 139 146 147 143 142 144 139 120 134 161 161 154 149
237 234 226 210 198 199 202 191 179 179 176 181 178 176 175 175 173 173 172 170 161 158 155 155 157 157 156 154 145 140 140 138 149 148 148 153 151 156 131 126 154 157 154
228 228 216 201 192 191 192 179 170 167 174 181 175 172 175 177 178 175 172 159 160 162 161 160 160 160 158 149 135 128 126 130 149 157 158 155 153 164 158 123 125 142 155
215 218 197 189 182 178 176 167 158 157 169 177 180 181 180 180 182 176 168 162 165 165 164 165 155 150 153 147 129 112 97 110 156 170 174 166 164 170 171 165 156 133 135
193 203 187 183 168 166 178 183 178 181 179 175 183 188 189 186 184 181 172 172 177 178 176 171 156 150 150 152 139 125 106 117 169 186 196 185 172 175 173 176 176 162 151
182 193 188 187 174 177 193 196 201 198 203 188 183 194 191 188 191 191 183 183 181 179 181 175 168 162 158 178 171 161 174 191 198 208 205 204 189 175 174 178 177 171 171
213 213 201 201 189 184 185 176 162 161 166 179 197 201 201 195 192 194 193 191 186 181 188 190 188 180 171 184 206 198 192 198 170 188 205 203 198 186 179 177 178 173 180
237 222 212 203 191 186 182 186 185 192 201 216 212 208 199 201 198 197 194 196 193 192 194 197 198 198 181 180 191 248 271 189 182 170 188 199 199 200 193 183 192 188 184
220 274 240 198 193 187 189 196 201 211 216 209 205 206 200 199 203 205 200 196 198 201 199 200 197 202 197 192 188 187 194 207 224 197 190 185 190 201 201 200 203 199 192
63 195 243 199 188 186 194 200 208 213 210 204 209 206 206 202 206 212 209 203 204 207 203 204 201 205 208 206 201 199 198 198 204 208 205 193 200 190 190 196 205 205 194